Location: Corcelles
(46.1547°N, 4.7234°E)
Time: 20:29:01
(UTC+00:00)

Cosmos 1515 - Pass Details

Date: 14 July 2020
Orbit: 507 x 515 km, 82.5° (Epoch: 14 August)

Event Time Altitude Azimuth Distance (km) Brightness Sun altitude
Rises 01:09:17 0° 350° (N) 2,641 8.3 -19.7°
Reaches altitude 10° 01:11:26 10° 349° (N) 1,750 7.2 -19.6°
Maximum altitude 01:15:16 80° 263° (W) 529 3.6 -19.3°
Enters shadow 01:16:00 56° 188° (S) 616 3.7 -19.3°
